AirNav   Bose ProFlight Series 2 Headset
 
 456 users online  

4C8 Albia Municipal Airport
Albia, Iowa, USA

GOING TO ALBIA?


FAA INFORMATION EFFECTIVE 30 JANUARY 2020

Location

FAA Identifier: 4C8
Lat/Long: 40-59-46.6000N 092-45-56.5000W
40-59.776667N 092-45.941667W
40.9962778,-92.7656944
(estimated)
Elevation: 963.7 ft. / 293.7 m (surveyed)
Variation: 02E (2000)
From city: 3 miles SE of ALBIA, IA
Time zone: UTC -6 (UTC -5 during Daylight Saving Time)
Zip code: 52531

Airport Operations

Airport use: Open to the public
Activation date: 11/1969
Control tower: no
ARTCC: CHICAGO CENTER
FSS: FORT DODGE FLIGHT SERVICE STATION
NOTAMs facility: FOD (NOTAM-D service available)
Attendance: UNATNDD
FOR SVC CALL 515-932-7815.
Wind indicator: lighted
Segmented circle: no
Lights: DUSK-DAWN. ACTVT PAPI AND REIL RYS 13 & 31 - CTAF.
Beacon: white-green (lighted land airport)
Operates sunset to sunrise.

Airport Communications

CTAF/UNICOM: 122.8
WX ASOS at OTM (16 nm NE): 124.175 (641-684-9164)
WX AWOS-3 at OOA (18 nm NE): 118.625 (641-933-4312)
WX AWOS-3 at TVK (20 nm S): 123.775 (641-437-1213)
  • APCH/DEP SVC PRVDD BY CHICAGO ARTCC ON FREQS 118.15/354.1 (OTTUMWA RCAG).

Nearby radio navigation aids

VOR radial/distance  VOR name  Freq  Var
OTMr258/20.0OTTUMWA VOR/DME111.6006E

 
NDB name  Hdg/Dist  Freq  Var  ID
BLOOMFIELD313/21.426902EBEX -... . -..-
PELLA160/25.825702EPEA .--. . .-

Airport Services

Parking: tiedowns
Bottled oxygen: NONE

Runway Information

Runway 13/31

Dimensions: 3398 x 60 ft. / 1036 x 18 m
Surface: asphalt, in good condition
Weight bearing capacity: 
Single wheel: 15.0
Runway edge lights: medium intensity
RUNWAY 13  RUNWAY 31
Latitude: 40-59.951297N40-59.600728N
Longitude: 092-46.229295W092-45.653602W
Elevation: 958.2 ft.963.4 ft.
Traffic pattern: leftleft
Runway heading: 127 magnetic, 129 true307 magnetic, 309 true
Markings: nonprecision, in good conditionnonprecision, in good condition
Visual slope indicator: 2-light PAPI on left (3.00 degrees glide path)2-light PAPI on left (3.00 degrees glide path)
Runway end identifier lights: yesyes
Touchdown point: yes, no lightsyes, no lights
Obstructions: 30 ft. pline, 1317 ft. from runway, 199 ft. left of centerline, 37:1 slope to clear14 ft. road, 480 ft. from runway, 200 ft. right of centerline, 20:1 slope to clear

Airport Ownership and Management from official FAA records

Ownership: Publicly-owned
Owner: CITY OF ALBIA
CITY HALL 120 SOUTH A ST
ALBIA, IA 52531
Phone 641-932-2129
Manager: LINDA HELLER
CITY HALL 120 SOUTH A ST
ALBIA, IA 52531
Phone 641-932-2129

Airport Operational Statistics

Aircraft based on the field: 5
Single engine airplanes: 5
    
Aircraft operations: avg 38/week *
57% transient general aviation
43% local general aviation
* for 12-month period ending 20 March 2017

Additional Remarks

RY 13 IS CALM WIND RY.
FOR CD CTC CHICAGO ARTCC AT 630-906-8921.

Instrument Procedures

NOTE: All procedures below are presented as PDF files. If you need a reader for these files, you should download the free Adobe Reader.

NOT FOR NAVIGATION. Please procure official charts for flight.
FAA instrument procedures published for use from 30 January 2020 at 0901Z to 27 Feburary 2020 at 0900Z.

 
IAPs - Instrument Approach Procedures
RNAV (GPS) RWY 13   download (164KB)
RNAV (GPS) RWY 31   download (181KB)
VOR-A   download (138KB)
NOTE: Special Take-Off Minimums/Departure Procedures apply   download (331KB)

Other nearby airports with instrument procedures:

KOTM - Ottumwa Regional Airport (16 nm NE)
KOOA - Oskaloosa Municipal Airport (18 nm NE)
KTVK - Centerville Municipal Airport (20 nm S)
4K6 - Bloomfield Municipal Airport (22 nm SE)
KOXV - Knoxville Municipal Airport (24 nm NW)
 
Loc | Ops | Rwys | IFR | FBO | Links
Com | Nav | Svcs | Stats | Notes
Area around 4C8 (Albia Municipal Airport)
 
Road maps at: MapQuest Bing Google
 
Aerial photo
No photo
 
Sectional chart

 
Airport distance calculator
Flying to Albia Municipal Airport? Find the distance to fly.

From to 4C8

Sunrise and sunset
Times for 23-Feb-2020
 Local
(UTC-6)
 Zulu
(UTC)
Morning civil twilight06:2712:27
Sunrise06:5512:55
Sunset17:5423:54
Evening civil twilight18:2200:22

Current date and time
Zulu (UTC)  23-Feb-2020 12:02:07
Local (UTC-6)  23-Feb-2020 06:02:07
 
METAR
KOTM 
16nm NE 
231153Z AUTO 25010KT 10SM CLR 02/M01 A2996 RMK AO2 SLP151 T00221011 10028 20006 53004
KOOA 
18nm NE 
231155Z AUTO 25008KT 10SM CLR 02/00 A2997 RMK AO2 T00160000 10040 20011
KTVK 
20nm S 
231135Z AUTO 20009KT 10SM CLR 03/01 A2998 RMK AO2
KOXV 
23nm NW 
231155Z AUTO 24005KT 10SM CLR 01/00 A2995 RMK AO2
KPEA 
26nm N 
231155Z AUTO 22004KT 10SM CLR 01/M01 A2997 RMK AO2 T00101010 10040 20008
KCNC 
27nm W 
231155Z AUTO 24006KT 10SM CLR 02/02 A2997 RMK AO2
TAF
KOTM 
16nm NE 
230527Z 2306/2406 22009KT P6SM SKC FM231400 25007KT P6SM FEW200 FM231900 30010KT P6SM SCT150 FM240000 36007KT P6SM BKN150
NOTAMs
Click for the latest NOTAMs
NOTAMs are issued by the DoD/FAA and will open in a separate window not controlled by AirNav.

 

 
 

Would you like to see your business listed on this page?

 If your business provides an interesting product or service to pilots, flight crews, aircraft, or users of the Albia Municipal Airport, you should consider listing it here.  To start the listing process, click on the button below
 
Add a business
 

Other Pages about Albia Municipal Airport

Page from the Iowa Airport Directory
 
Update a link
 
Copyright © AirNav, LLC. All rights reserved. Privacy Policy  Contact